Regional Weather Roundup
Issued by NWS Kansas City/Pleasant Hill, MO

Home | Current Version | Previous Version | Text Only | Print | Product List | Glossary On
Versions: 1 2 3 4 5 6 7 8 9 10 11 12 13 14 15 16 17 18 19 20 21 22 23 24 25 26 27 28 29 30 31 32 33 34 35 36 37 38 39 40 41 42 43 44 45 46 47 48 49 50
000
ASUS43 KEAX 262311
RWREAX

WEATHER ROUNDUP FOR EASTERN KANSAS AND NORTHWEST MISSOURI
NATIONAL WEATHER SERVICE KANSAS CITY/PLEASANT HILL MO
600 PM CDT THU MAR 26 2015

KSZ040-057-103>105-MOZ028-029-037-043-270000-
...KANSAS CITY METROPOLITAN AREA...

CITY           SKY/WX    TMP DP  RH WIND       PRES   REMARKS
K.C. INTL      PTSUNNY   48  28  46 W7        30.07F
K.C. DOWNTOWN  MOSUNNY   51  25  36 N5        30.08F
LEES SUMMIT    SUNNY     50  26  39 NW10      30.08F
OLATHE - IXD   MOSUNNY   50  27  40 NW6       30.09F
OLATHE - OJC   SUNNY     50  25  37 N9        30.07F
LAWRENCE       PTSUNNY   50  27  40 W7        30.08F

$$

MOZ001>008-011>017-020>025-030>033-038>040-044>046-053-054-270000-
...NORTHERN AND CENTRAL MISSOURI...

CITY           SKY/WX    TMP DP  RH WIND       PRES   REMARKS
ST. JOSEPH     MOSUNNY   49  26  41 NW7       30.08F
MOSBY          PTCLDY    48  27  43 W9        30.08F
WARRENSBURG    SUNNY     50  27  40 NW8       30.08F
WHITEMAN AFB   SUNNY     50  28  41 NW10      30.07F
CLINTON        SUNNY     52  28  40 NW12      30.09S
SEDALIA        SUNNY     50  29  44 NW9       30.09F
WARSAW         NOT AVBL
MARSHALL       MOSUNNY   52  30  43 NW7       30.09S
CHILLICOTHE      N/A     51  26  37 NW8       30.08F
MOBERLY        MOSUNNY   50  27  40 NW7       30.07S
KIRKSVILLE     MOSUNNY   49  24  37 NW9       30.06R

$$

MOZ041-047>049-056>058-063>065-088>090-097-270000-
...EASTERN AND SOUTHERN MISSOURI...

CITY           SKY/WX    TMP DP  RH WIND       PRES   REMARKS
ST. LOUIS INTL MOSUNNY   50  27  40 NW14G20   30.04S
SPIRIT OF STL  MOSUNNY   50  29  44 NW9       30.04S
COLUMBIA       SUNNY     49  30  48 NW14      30.05F
JEFFERSON CITY SUNNY     50  28  42 NW13      30.06S
MEXICO         SUNNY     50  36  57 NW9       30.05F
HANNIBAL       SUNNY     50  18  27 NW6       30.05S
ROLLA          SUNNY     48  29  47 MISG      30.03S
LEBANON        SUNNY     52  27  37 NW10G16   30.05S
OSAGE BEACH    SUNNY     52  27  37 NW6       30.06S
SPRINGFIELD    SUNNY     51  27  39 NW13      30.06S
BRANSON        MOSUNNY   52  27  37 N14G21    30.06R
NEVADA         SUNNY     52  27  37 CALM      30.10F
JOPLIN         SUNNY     52  28  39 NW12      30.09F
WEST PLAINS    SUNNY     52  27  38 MISG      30.03R

$$

IAZ060-094-KSZ022-034>040-054-083-096-NEZ052-066-093-270000-
...KANSAS...SOUTHEAST NEBRASKA AND IOWA...

CITY           SKY/WX    TMP DP  RH WIND       PRES   REMARKS
TOPEKA         CLOUDY    51  26  37 S3        30.07F
MANHATTAN      CLOUDY    53  28  38 SW5       30.04F
EMPORIA        MOSUNNY   53  26  35 SW3       30.06F
CHANUTE        SUNNY     55  25  31 NW5       30.09F
WICHITA        MOSUNNY   58  30  34 W10       30.06F
OMAHA          LGT RAIN  38  31  76 N14       30.15R WCI  30
LINCOLN        LGT RAIN  37  34  89 N15       30.14R FOG     WCI  28
FALLS CITY     CLOUDY    49  26  41 N6        30.07S
LAMONI         PTSUNNY   47  24  40 N12       30.06S
DES MOINES     CLOUDY    44  23  43 N14       30.09S

$$



USA.gov is the U.S. government's official web portal to all federal, state and local government web resources and services.